Home > Time Zones > World Clock > Weather > Macau > Macau > Past weeks

Flag for Macau Weather past 2 weeks in Macau, Macau

68 °F

Passing clouds.

Feels Like: 68 °F
Forecast: 69 / 76 °F
Wind: 12 mph from Northeast

Location: Taipa

Current Time: Nov 29, 2015 at 4:24:23 AM

Latest Report: Nov 29, 2015 at 3:30 AM

Visibility: 5 mi

Pressure: 30.15 "Hg

Humidity: 73%

Dew point: 59 °F

Location of MacauLocation

Historic Weather in Macau — Graph


Macau temperature yesterday

Maximum temperature yesterday: 72 °F (at 1:30 PM)
Minimum temperature yesterday: 64 °F (at 6:30 AM)
Average temperature yesterday: 68 °F

Past Weeks' High & Low Weather Summary

High82 °F (Nov 17, 1:00 PM)100% (Nov 17, 3:00 AM)30.24 "Hg (Nov 17, 3:00 AM)
Low61 °F (Nov 26, 1:30 AM)40% (Nov 26, 3:30 PM)29.86 "Hg (Nov 16, 2:30 PM)
Average74 °F80%30.03 "Hg
* Reported Nov 14 3:00 AM — Nov 29 3:00 AM, Macau, Weather by CustomWeather, © 2015

Note: Actual official high and low records may vary slightly from our data, if they occured in-between our weather recording intervals... More about our weather records


Macau weather history for previous 24 hours

Time TempWeatherWind HumidityBarometerVisibility
3:00 AM
Sun, Nov 29
68 °FPassing clouds.10 mph73%30.15 "Hg6 mi
2:30 AM68 °FPassing clouds.7 mph73%30.18 "Hg6 mi
2:00 AM68 °FPassing clouds.6 mph73%30.18 "Hg6 mi
1:30 AM68 °FPassing clouds.6 mph73%30.18 "Hg6 mi
1:00 AM68 °FPassing clouds.7 mph73%30.21 "Hg6 mi
12:30 AM68 °FPassing clouds.7 mph73%30.21 "HgN/A
12:00 AM70 °FPassing clouds.7 mph69%30.21 "Hg6 mi
11:30 PM
Sat, Nov 28
70 °FPassing clouds.9 mph69%30.21 "Hg6 mi
11:00 PM70 °FPassing clouds.8 mph69%30.21 "Hg6 mi
10:30 PM68 °FPassing clouds.7 mph73%30.18 "Hg5 mi
10:00 PM68 °FPassing clouds.6 mph78%30.18 "Hg5 mi
9:30 PM68 °FPassing clouds.6 mph73%30.18 "Hg6 mi
9:00 PM68 °FPassing clouds.6 mph73%30.18 "Hg6 mi
8:30 PM68 °FPassing clouds.5 mph78%30.18 "Hg6 mi
8:00 PM68 °FPassing clouds.5 mph78%30.18 "Hg6 mi
7:30 PM68 °FPassing clouds.2 mph73%30.18 "HgN/A
7:00 PM68 °FPassing clouds.5 mph73%30.18 "HgN/A
6:30 PM70 °FPassing clouds.5 mph69%30.15 "HgN/A
6:00 PM70 °FPassing clouds.5 mph69%30.15 "Hg5 mi
5:30 PM70 °FPassing clouds.3 mph69%30.15 "Hg6 mi
5:00 PM70 °FPassing clouds.3 mph69%30.15 "Hg6 mi
4:30 PM70 °FPassing clouds.5 mph69%30.15 "Hg6 mi
3:30 PM72 °FPassing clouds.7 mph65%30.12 "Hg5 mi
2:30 PM72 °FPassing clouds.8 mph61%30.15 "Hg4 mi
2:00 PM72 °FPassing clouds.9 mph61%30.15 "Hg4 mi
1:30 PM72 °FPassing clouds.12 mph57%30.18 "Hg5 mi
12:30 PM70 °FPassing clouds.14 mph60%30.18 "HgN/A
12:00 PM68 °FPassing clouds.15 mph64%30.21 "Hg6 mi
11:30 AM66 °FScattered clouds.15 mph64%30.21 "Hg6 mi
11:00 AM66 °FScattered clouds.16 mph68%30.21 "Hg6 mi
10:30 AM66 °FScattered clouds.15 mph68%30.21 "Hg6 mi
10:00 AM66 °FScattered clouds.14 mph68%30.24 "HgN/A
9:30 AM66 °FScattered clouds.13 mph73%30.21 "HgN/A
9:00 AM66 °FScattered clouds.13 mph73%30.21 "HgN/A
8:30 AM66 °FScattered clouds.14 mph73%30.21 "HgN/A
8:00 AM64 °FScattered clouds.14 mph78%30.21 "HgN/A
7:30 AM64 °FScattered clouds.14 mph78%30.18 "HgN/A
7:00 AM64 °FScattered clouds.14 mph73%30.18 "HgN/A
6:30 AM64 °FPassing clouds.14 mph78%30.18 "HgN/A
6:00 AM66 °FPassing clouds.13 mph73%30.18 "HgN/A
5:30 AM66 °FPassing clouds.13 mph73%30.18 "HgN/A
5:00 AM66 °FPassing clouds.13 mph73%30.15 "HgN/A
4:30 AM66 °FPassing clouds.14 mph73%30.15 "HgN/A
4:00 AM66 °FPassing clouds.13 mph68%30.15 "HgN/A
Weather by CustomWeather, © 2015

See weather overviewHow to use our weather pages